Flag Weather past 2 weeks in Dubrovnik, Croatia

Now
48 °F

Passing clouds.


Feels Like: 42 °F
Forecast: 47 / 57 °F
Wind: 15 mph from Northeast

Location: Dubrovnik / Cilipi

Current Time: Nov 22, 2014 at 1:33:34 AM

Latest Report: Nov 22, 2014 at 1:00 AM


Visibility: N/A

Pressure: 30.18 "Hg

Humidity: 50%

Dew point: 30 °F

Location of DubrovnikLocation

Historic Weather in Dubrovnik — Graph

°F

Dubrovnik temperature yesterday

Maximum temperature yesterday: 61 °F (at 1:30 PM)
Minimum temperature yesterday: 48 °F (at 4:30 AM)
Average temperature yesterday: 53 °F

Past Weeks' High & Low Weather Summary

 TemperatureHumidityPressure
High70 °F (Nov 8, 10:30 AM)100% (Nov 13, 11:30 AM)30.21 "Hg (Nov 13, 11:30 AM)
Low48 °F (Nov 15, 4:00 AM)36% (Nov 20, 12:00 PM)29.71 "Hg (Nov 13, 4:30 AM)
Average58 °F76%29.97 "Hg
* Reported Midnight between Nov 6 and Nov 7 — Nov 22 12:30 AM, Dubrovnik, Weather by CustomWeather, © 2014

Note: Actual official high and low records may vary slightly from our data, if they occured in-between our weather recording intervals... More about our weather records

Advertising

Dubrovnik weather history for previous 24 hours

 ConditionsComfort  
Time TempWeatherWind HumidityBarometerVisibility
12:30 AM
Nov 22
48 °FPassing clouds.15 mph50%30.18 "HgN/A
12:00 AM48 °FPassing clouds.17 mph50%30.18 "HgN/A
11:30 PM
Nov 21
48 °FPassing clouds.21 mph50%30.18 "HgN/A
10:30 PM50 °FPassing clouds.22 mph47%30.18 "HgN/A
10:00 PM50 °FPassing clouds.16 mph47%30.18 "HgN/A
9:30 PM50 °FPassing clouds.18 mph47%30.18 "HgN/A
9:00 PM50 °FPassing clouds.22 mph47%30.18 "HgN/A
8:30 PM52 °FClear.21 mph44%30.18 "Hg10 mi
8:00 PM52 °FPassing clouds.21 mph44%30.18 "HgN/A
7:30 PM52 °FPassing clouds.17 mph44%30.18 "HgN/A
7:00 PM54 °FPassing clouds.16 mph41%30.18 "HgN/A
6:30 PM54 °FPassing clouds.20 mph41%30.18 "HgN/A
6:00 PM55 °FPassing clouds.14 mph38%30.15 "HgN/A
5:30 PM54 °FPassing clouds.12 mph44%30.15 "HgN/A
5:00 PM54 °FPassing clouds.8 mph47%30.15 "HgN/A
4:30 PM55 °FClear.7 mph59%30.15 "Hg10 mi
4:00 PM55 °FSunny.10 mph55%30.15 "Hg10 mi
3:30 PM57 °FSunny.9 mph55%30.15 "Hg10 mi
3:00 PM59 °FPassing clouds.10 mph48%30.15 "HgN/A
2:30 PM59 °FPassing clouds.9 mph48%30.15 "HgN/A
2:00 PM59 °FPassing clouds.8 mph42%30.15 "HgN/A
1:30 PM61 °FSunny.8 mph36%30.15 "Hg10 mi
1:00 PM59 °FSunny.8 mph36%30.15 "Hg10 mi
12:30 PM59 °FSunny.8 mph42%30.15 "Hg10 mi
12:00 PM59 °FPassing clouds.12 mph36%30.18 "HgN/A
11:30 AM57 °FPassing clouds.12 mph39%30.18 "HgN/A
11:00 AM57 °FPassing clouds.15 mph39%30.18 "HgN/A
10:30 AM55 °FPassing clouds.16 mph44%30.21 "HgN/A
10:00 AM55 °FPassing clouds.16 mph44%30.21 "HgN/A
9:30 AM54 °FPassing clouds.15 mph47%30.21 "HgN/A
9:00 AM52 °FSunny.17 mph50%30.21 "Hg10 mi
8:30 AM50 °FPassing clouds.17 mph50%30.18 "HgN/A
8:00 AM50 °FPassing clouds.17 mph50%30.18 "HgN/A
7:30 AM48 °FPassing clouds.16 mph54%30.18 "HgN/A
7:00 AM48 °FPassing clouds.18 mph54%30.18 "HgN/A
6:30 AM48 °FPassing clouds.20 mph54%30.18 "HgN/A
6:00 AM48 °FPassing clouds.20 mph54%30.18 "HgN/A
5:30 AM48 °FClear.20 mph54%30.18 "Hg10 mi
5:00 AM48 °FPassing clouds.17 mph54%30.15 "HgN/A
4:30 AM48 °FClear.22 mph54%30.15 "Hg10 mi
3:30 AM50 °FPassing clouds.23 mph50%30.15 "HgN/A
3:00 AM50 °FPassing clouds.23 mph50%30.18 "HgN/A
2:30 AM50 °FPassing clouds.23 mph50%30.18 "HgN/A
2:00 AM50 °FPassing clouds.21 mph50%30.18 "HgN/A
1:30 AM50 °FPassing clouds.21 mph50%30.18 "HgN/A
1:00 AM50 °FPassing clouds.21 mph50%30.18 "HgN/A
Weather by CustomWeather, © 2014

See weather overviewHow to use our weather pages